Location: El Peñón
(10.3719°N, 67.3319°W)
Time: 04:46:32
(UTC+00:00)

Landsat 7 - Pass Details

Date: 13 June 2024
Orbit: 690 x 691 km, 97.9° (Epoch: 21 July)

Event Time Altitude Azimuth Distance (km) Brightness Sun altitude
Exits shadow 23:40:17 - 170° (S) 2,990 6.7 -11.7°
Reaches altitude 10° 23:42:22 10° 170° (S) 2,139 6.0 -12.2°
Maximum altitude 23:47:03 83° 257° (WSW) 699 3.8 -13.2°
Drops below altitude 10° 23:51:45 10° 346° (NNW) 2,138 6.9 -14.2°
Sets 23:53:59 0° 347° (NNW) 3,054 7.7 -14.7°
